User: anonymous   Login
Location: Unspecified
(0.0000°N, 0.0000°E)
Time: 05:24:11
(UTC+00:00)
Language:

PROBA 2 - Orbit

View from above orbital plane
View from above orbital plane
View from above satellite
View from above satellite

Ground track
Ground track

The orbit data is extracted from the following two-line orbital elements,

1 36037U 09059B   15144.11714193  .00000082  00000-0  30899-4 0  9997
2 36037 098.2764 337.5129 0014162 136.5776 343.9389 14.52843081294499
Epoch (UTC): 24 May 2015 02:48:41
Eccentricity: 0.0014162
inclination: 98.2764°
perigee height: 706 km
apogee height: 726 km
right ascension of ascending node: 337.5129°
argument of perigee: 136.5776°
revolutions per day: 14.52843081
mean anomaly at epoch: 343.9389°
orbit number at epoch: 29449

The dashed part of the orbit path shows where the satellite is in the earth's shadow,  

DLR